Location: Cherry Springs State Park
(41.6616°N, 77.8240°W)
Time: 15:03:08
(UTC-04:00)

Amateur Radio Satellites - All Passes

Search period start: 17 April 2014 14:33
Search period end: 18 April 2014 14:33
Location: Cherry Springs State Park, 41.6616°N, 77.8240°W

Satellite Date Start Highest point End Downlink Frequencies (MHz)
Time Altitude Azimuth
Gurwin Techsat 1B 17 Apr 14:34:09 14:38:48 32° 67° (ENE) 14:43:29 435.225 FM
JAS-1B 17 Apr 14:42:48 14:48:34 23° 62° (ENE) 14:53:42 435.800 - 435.900 CW/SSB
AO-27 17 Apr 14:54:14 14:59:18 53° 260° (W) 15:04:23 436.795 MHz FM
OPAL 17 Apr 14:57:22 15:01:01 19° 94° (E) 15:04:39 ?
ITAMSAT 1 17 Apr 15:05:47 15:10:40 42° 261° (W) 15:15:36 435.822 SSB
AO-7 17 Apr 15:07:04 15:13:28 26° 54° (NE) 15:19:51 29.400 - 29.500 MHz
KITSAT 1 17 Apr 15:17:02 15:20:47 14° 261° (W) 15:24:32 435.175 FM
Oscar 19 17 Apr 15:17:31 15:21:01 18° 268° (W) 15:24:33 437.125 CW, 437.150 USB
TMSAT-1 17 Apr 15:23:08 15:28:21 63° 73° (ENE) 15:33:36 436.925 FM
Oscar 16 17 Apr 15:26:21 15:29:03 14° 270° (W) 15:31:45 437.025 USB, Beacon 2401.1428
AO-Echo 17 Apr 15:36:09 15:40:39 28° 265° (W) 15:45:06 ?
ISS 17 Apr 15:49:13 15:51:44 20° 133° (SE) 15:54:16 145.800 FM
Uosat F 17 Apr 15:52:03 15:56:50 45° 70° (ENE) 16:01:36 435.120 FM
Uribyol 2 17 Apr 15:57:36 16:00:12 14° 270° (W) 16:02:48 436.500 FM
SO-50 17 Apr 15:57:40 16:01:32 29° 114° (ESE) 16:05:25 436.795 FM
Gurwin Techsat 1B 17 Apr 16:13:58 16:18:43 33° 264° (W) 16:23:29 435.225 FM
RS-15 17 Apr 16:20:46 16:31:42 68° 52° (NE) 16:42:52 29.354 - 29.394 USB, Beacon 29.352 USB
JAS-1B 17 Apr 16:30:19 16:38:43 75° 256° (WSW) 16:45:43 435.800 - 435.900 CW/SSB
OPAL 17 Apr 16:35:07 16:40:12 55° 291° (WNW) 16:45:17 ?
AO-7 17 Apr 16:57:09 17:05:26 78° 253° (WSW) 17:13:45 29.400 - 29.500 MHz
TMSAT-1 17 Apr 17:05:30 17:08:43 16° 269° (W) 17:11:57 436.925 FM
ISS 17 Apr 17:24:59 17:28:15 50° 330° (NNW) 17:31:32 145.800 FM
Uosat F 17 Apr 17:32:02 17:35:49 21° 266° (W) 17:39:37 435.120 FM
SO-50 17 Apr 17:37:58 17:42:01 33° 312° (NW) 17:46:07 436.795 FM
JAS-1B 17 Apr 18:26:50 18:29:58 13° 271° (W) 18:32:57 435.800 - 435.900 CW/SSB
Hamsat 17 Apr 18:27:20 18:31:28 65° 75° (ENE) 18:35:41 145.90 MHz
UOSAT-12 17 Apr 18:32:09 18:36:36 57° 119° (ESE) 18:41:10 437.025 FM, 437.400 FM
RS-15 17 Apr 18:33:55 18:43:16 35° 254° (WSW) 18:52:54 29.354 - 29.394 USB, Beacon 29.352 USB
JAS-2 17 Apr 18:45:48 18:51:11 38° 69° (ENE) 18:56:07 435.800 - 435.900 CW/SSB, 435.910 FM
AO-7 17 Apr 18:55:22 18:59:27 14° 272° (W) 19:03:34 29.400 - 29.500 MHz
Saudisat 1A 17 Apr 18:58:34 18:58:58 10° 33° (NNE) 18:59:22 436.775 MHz
ISS 17 Apr 19:03:16 19:05:36 17° 349° (N) 19:07:55 145.800 FM
STRAND 1 17 Apr 19:10:00 19:14:20 27° 95° (E) 19:18:38 ?
SO-67 17 Apr 19:41:30 19:45:00 87° 77° (ENE) 19:48:31 435.3500 MHz FM
HO-68 17 Apr 19:54:17 19:59:23 22° 56° (NE) 20:04:29 435.675 MHz FM
Hamsat 17 Apr 20:07:08 20:07:55 10° 271° (W) 20:08:42 145.90 MHz
UOSAT-12 17 Apr 20:13:38 20:17:08 21° 318° (NW) 20:20:40 437.025 FM, 437.400 FM
JAS-2 17 Apr 20:31:13 20:36:20 29° 263° (W) 20:41:04 435.800 - 435.900 CW/SSB, 435.910 FM
Saudisat 1A 17 Apr 20:35:13 20:39:34 56° 53° (NE) 20:43:52 436.775 MHz
ISS 17 Apr 20:41:04 20:43:19 17° 9° (N) 20:45:34 145.800 FM
STRAND 1 17 Apr 20:48:56 20:53:33 36° 292° (WNW) 20:58:09 ?
Oscar 11 17 Apr 21:32:28 21:36:19 33° 70° (ENE) 21:40:12 145.825 FM, Beacon 2401.500 USB
HO-68 17 Apr 21:39:10 21:46:18 79° 255° (WSW) 21:53:30 435.675 MHz FM
MaSat-1 17 Apr 22:05:19 22:08:03 30° 113° (ESE) 22:10:29 437.345 MHz
Saudisat 1A 17 Apr 22:16:05 22:18:43 16° 250° (WSW) 22:21:20 436.775 MHz
ISS 17 Apr 22:17:28 22:20:43 44° 29° (NNE) 22:23:57 145.800 FM
FUNcube-1 17 Apr 22:52:30 22:56:44 79° 76° (ENE) 23:00:55 145.950 - 145.970 MHz USB
Oscar 11 17 Apr 23:09:15 23:12:34 22° 266° (W) 23:15:56 145.825 FM, Beacon 2401.500 USB
HO-68 17 Apr 23:32:02 23:35:03 13° 272° (W) 23:38:05 435.675 MHz FM
ISS 17 Apr 23:54:33 23:57:19 24° 226° (SW) 00:00:04 145.800 FM
PCSat 18 Apr 00:26:49 00:30:46 21° 106° (ESE) 00:34:44 145.825 MHz
SO-50 18 Apr 00:28:37 00:32:46 31° 48° (NE) 00:36:57 436.795 FM
Sapphire 18 Apr 01:23:18 01:28:37 61° 115° (ESE) 01:33:58 437.095 MHz 1200 baud AX-25 AFSK
UOSAT-12 18 Apr 01:23:47 01:24:57 11° 32° (NNE) 01:26:06 437.025 FM, 437.400 FM
Oscar 19 18 Apr 01:48:44 01:52:22 19° 92° (E) 01:55:58 437.125 CW, 437.150 USB
Oscar 16 18 Apr 01:56:17 02:00:27 24° 94° (E) 02:04:35 437.025 USB, Beacon 2401.1428
KITSAT 1 18 Apr 01:56:26 02:00:22 14° 99° (E) 02:04:18 435.175 FM
PCSat 18 Apr 02:08:27 02:13:44 55° 304° (WNW) 02:19:05 145.825 MHz
SO-50 18 Apr 02:09:09 02:13:20 33° 245° (WSW) 02:17:33 436.795 FM
OPAL 18 Apr 02:12:12 02:16:42 34° 65° (ENE) 02:21:16 ?
Uribyol 2 18 Apr 02:28:15 02:32:27 25° 94° (E) 02:36:38 436.500 FM
Gurwin Techsat 1B 18 Apr 02:52:02 02:53:58 12° 88° (E) 02:55:52 435.225 FM
UOSAT-12 18 Apr 03:01:33 03:06:11 53° 53° (NE) 03:10:47 437.025 FM, 437.400 FM
AO-27 18 Apr 03:06:57 03:12:02 55° 101° (E) 03:17:06 436.795 MHz FM
Sapphire 18 Apr 03:08:12 03:12:27 23° 314° (NW) 03:16:44 437.095 MHz 1200 baud AX-25 AFSK
Oscar 10/S400 18 Apr 03:12:34 03:31:55 34° 134° (SE) 04:44:02 145.825 - 145.975 CW/USB, Beacon 145.810 USB
ITAMSAT 1 18 Apr 03:18:04 03:23:15 68° 102° (ESE) 03:28:23 435.822 SSB
Oscar 19 18 Apr 03:26:57 03:32:01 53° 289° (WNW) 03:37:03 437.125 CW, 437.150 USB
Oscar 16 18 Apr 03:35:04 03:39:57 42° 290° (WNW) 03:44:48 437.025 USB, Beacon 2401.1428
TMSAT-1 18 Apr 03:39:24 03:43:42 25° 94° (E) 03:47:59 436.925 FM
AO-Echo 18 Apr 03:42:34 03:47:24 85° 285° (WNW) 03:52:07 ?
KITSAT 1 18 Apr 03:46:20 03:54:25 77° 117° (ESE) 04:02:33 435.175 FM
OPAL 18 Apr 03:51:16 03:55:35 29° 262° (W) 03:59:59 ?
PCSat 18 Apr 03:56:36 03:58:25 12° 325° (NW) 04:00:13 145.825 MHz
Uosat F 18 Apr 04:01:22 04:03:42 13° 90° (E) 04:06:01 435.120 FM
Uribyol 2 18 Apr 04:07:14 04:12:03 41° 291° (WNW) 04:16:52 436.500 FM
JAS-1B 18 Apr 04:16:06 04:20:42 25° 95° (E) 04:25:24 435.800 - 435.900 CW/SSB
Gurwin Techsat 1B 18 Apr 04:29:14 04:34:34 83° 285° (WNW) 04:39:52 435.225 FM
UOSAT-12 18 Apr 04:42:40 04:45:57 19° 250° (WSW) 04:49:11 437.025 FM, 437.400 FM
AO-27 18 Apr 04:47:29 04:51:08 20° 298° (WNW) 04:54:47 436.795 MHz FM
AO-7 18 Apr 04:58:49 05:06:18 36° 98° (E) 05:13:45 29.400 - 29.500 MHz
ITAMSAT 1 18 Apr 04:59:04 05:02:10 16° 299° (WNW) 05:05:16 435.822 SSB
TMSAT-1 18 Apr 05:18:48 05:23:46 42° 291° (WNW) 05:28:42 436.925 FM
Uosat F 18 Apr 05:38:00 05:42:59 71° 286° (WNW) 05:47:57 435.120 FM
KITSAT 1 18 Apr 05:43:42 05:50:37 30° 319° (NW) 05:57:35 435.175 FM
JAS-1B 18 Apr 06:06:19 06:11:38 41° 292° (WNW) 06:17:01 435.800 - 435.900 CW/SSB
Gurwin Techsat 1B 18 Apr 06:11:53 06:13:41 12° 303° (WNW) 06:15:30 435.225 FM
Hamsat 18 Apr 06:15:04 06:16:44 12° 90° (E) 06:18:23 145.90 MHz
STRAND 1 18 Apr 06:26:03 06:30:50 41° 69° (ENE) 06:35:37 ?
RS-15 18 Apr 06:44:52 06:55:07 41° 109° (ESE) 07:05:03 29.354 - 29.394 USB, Beacon 29.352 USB
AO-7 18 Apr 06:51:20 06:59:17 53° 296° (WNW) 07:07:16 29.400 - 29.500 MHz
JAS-2 18 Apr 07:38:16 07:43:00 31° 97° (E) 07:48:07 435.800 - 435.900 CW/SSB, 435.910 FM
KITSAT 1 18 Apr 07:46:09 07:49:18 12° 348° (NNW) 07:52:27 435.175 FM
Hamsat 18 Apr 07:48:48 07:53:06 61° 285° (WNW) 07:57:24 145.90 MHz
MaSat-1 18 Apr 08:06:04 08:08:59 57° 246° (WSW) 08:12:25 437.345 MHz
STRAND 1 18 Apr 08:06:05 08:10:09 24° 266° (W) 08:14:15 ?
Sapphire 18 Apr 08:30:22 08:31:38 11° 34° (NE) 08:32:54 437.095 MHz 1200 baud AX-25 AFSK
SO-67 18 Apr 08:38:56 08:42:27 77° 283° (WNW) 08:45:56 435.3500 MHz FM
AO-7 18 Apr 08:47:13 08:50:12 12° 317° (NW) 08:53:11 29.400 - 29.500 MHz
RS-15 18 Apr 08:55:57 09:07:03 60° 310° (NW) 09:17:54 29.354 - 29.394 USB, Beacon 29.352 USB
HO-68 18 Apr 09:08:03 09:12:57 19° 91° (E) 09:17:49 435.675 MHz FM
PCSat 18 Apr 09:13:29 09:17:37 21° 45° (NE) 09:21:43 145.825 MHz
AO-40 18 Apr 09:13:55 10:25:31 17° 231° (SW) 12:28:47 Beacon 2401.320
JAS-2 18 Apr 09:23:22 09:28:08 35° 291° (WNW) 09:33:16 435.800 - 435.900 CW/SSB, 435.910 FM
KITSAT 1 18 Apr 09:44:53 09:49:04 15° 20° (NNE) 09:53:14 435.175 FM
Sapphire 18 Apr 10:11:06 10:16:24 51° 55° (NE) 10:21:39 437.095 MHz 1200 baud AX-25 AFSK
FUNcube-1 18 Apr 10:42:50 10:45:14 15° 92° (E) 10:47:39 145.950 - 145.970 MHz USB
PANSAT 18 Apr 10:43:53 10:44:50 11° 174° (S) 10:45:46 not established
Saudisat 1A 18 Apr 10:44:16 10:46:30 14° 109° (ESE) 10:48:43 436.775 MHz
HO-68 18 Apr 10:54:09 11:01:20 78° 289° (WNW) 11:08:30 435.675 MHz FM
Oscar 11 18 Apr 10:55:29 10:59:50 66° 101° (ESE) 11:04:09 145.825 FM, Beacon 2401.500 USB
PCSat 18 Apr 10:56:08 11:01:32 67° 244° (WSW) 11:06:52 145.825 MHz
RS-15 18 Apr 11:13:47 11:22:20 25° 340° (NNW) 11:30:49 29.354 - 29.394 USB, Beacon 29.352 USB
KITSAT 1 18 Apr 11:39:34 11:47:08 40° 47° (NE) 11:54:37 435.175 FM
Sapphire 18 Apr 11:55:17 11:59:27 23° 253° (WSW) 12:03:37 437.095 MHz 1200 baud AX-25 AFSK
FUNcube-1 18 Apr 12:17:49 12:21:54 48° 287° (WNW) 12:26:03 145.950 - 145.970 MHz USB
Saudisat 1A 18 Apr 12:21:07 12:25:34 66° 305° (NW) 12:30:01 436.775 MHz
PANSAT 18 Apr 12:23:26 12:24:14 11° 187° (S) 12:25:02 not established
Oscar 11 18 Apr 12:33:37 12:35:29 13° 298° (WNW) 12:37:20 145.825 FM, Beacon 2401.500 USB
HO-68 18 Apr 12:43:51 12:47:55 16° 308° (NW) 12:51:58 435.675 MHz FM
AO-27 18 Apr 12:50:06 12:51:49 12° 58° (ENE) 12:53:32 436.795 MHz FM
ITAMSAT 1 18 Apr 13:00:04 13:02:44 14° 59° (ENE) 13:05:24 435.822 SSB
Oscar 19 18 Apr 13:05:43 13:10:03 28° 66° (ENE) 13:14:25 437.125 CW, 437.150 USB
Oscar 16 18 Apr 13:13:24 13:18:02 36° 68° (ENE) 13:22:42 437.025 USB, Beacon 2401.1428
AO-Echo 18 Apr 13:18:59 13:22:14 17° 62° (ENE) 13:25:26 ?
RS-15 18 Apr 13:31:38 13:39:56 23° 17° (NNE) 13:48:15 29.354 - 29.394 USB, Beacon 29.352 USB
KITSAT 1 18 Apr 13:34:58 13:42:44 53° 247° (WSW) 13:50:28 435.175 FM
Uribyol 2 18 Apr 13:46:17 13:51:01 38° 69° (ENE) 13:55:46 436.500 FM
Saudisat 1A 18 Apr 14:04:29 14:06:02 12° 325° (NW) 14:07:36 436.775 MHz
AO-7 18 Apr 14:12:27 14:14:56 12° 42° (NE) 14:17:24 29.400 - 29.500 MHz
Gurwin Techsat 1B 18 Apr 14:12:31 14:16:24 21° 63° (ENE) 14:20:19 435.225 FM
